Location: Chippewa Lake
(41.0698°N, 81.9010°W)
Time: 21:55:42
(UTC+00:00)

USA 215 - Pass Details

Date: 09 May 2021
Orbit: 1100 x 1107 km, 123.0° (Epoch: 14 June)

Event Time Altitude Azimuth Distance (km) Brightness Sun altitude
Exits shadow 05:04:15 38° 87° (E) 1,625 4.0 -31.3°
Maximum altitude 05:06:31 54° 34° (NNE) 1,314 3.8 -31.4°
Drops below altitude 10° 05:12:50 10° 319° (NW) 2,963 6.1 -31.5°
Sets 05:15:22 0° 315° (NW) 3,923 6.8 -31.5°
